Regional Weather Roundup
Issued by NWS Wakefield, VA

Home | Current Version | Previous Version | Graphics & Text | Print | Product List | Glossary On
Versions: 1 2 3 4 5 6 7 8 9 10 11 12 13 14 15 16 17 18 19 20 21 22 23 24 25 26 27
000
ASUS41 KAKQ 301515
RWRAKQ

REGIONAL WEATHER ROUNDUP
NATIONAL WEATHER SERVICE WAKEFIELD VA
1100 AM EDT MON MAY 30 2016

Note: "fair" indicates few or no clouds below 12,000 feet with no
significant weather and/or obstructions to visibility. * = Denotes
station may not report precipitation (e.g., rain,snow,etc.),
thunder or fog.

VAZ042-051-052>054-056-301600-
NORTHERN VIRGINIA

CITY           SKY/WX    TMP DP  RH WIND       PRES   REMARKS
WASH NATIONAL  PTSUNNY   77  65  66 CALM      30.01F
DULLES         PTSUNNY   75  64  68 SE5       30.01F
FORT BELVOIR   FAIR      76  67  72 E3        30.01F
QUANTICO       CLOUDY    75  66  73 E5        30.03F
FREDERICKSBRG* CLOUDY    74  68  80 E5        30.01F
STAFFORD*      PTSUNNY   74  65  74 CALM      30.06F
WARRENTON      CLOUDY    76  62  60 E3        30.02F
CULPEPER*      CLOUDY    75  67  77 CALM      30.03F
MANASSAS*      CLOUDY    75  64  69 VRB3      30.01F
LEESBURG*      PTSUNNY   77  68  73 S5        30.03S
WINCHESTER     FAIR      73  63  68 CALM      30.03S
FRONT ROYAL*   FAIR      73  64  73 CALM      30.03S
LURAY*         FAIR      72  64  78 CALM      30.03F
$$

VAZ048-049-060>072-079>083-301600-
CENTRAL AND SOUTH CENTRAL VIRGINIA

CITY           SKY/WX    TMP DP  RH WIND       PRES   REMARKS
RICHMOND       LGT RAIN  73  70  90 N6        30.01F FOG
CHESTERFIELD*  CLOUDY    73  61  64 CALM      30.03F
PETERSBURG*    LGT RAIN  73  73 100 CALM      30.03S
HANOVER        CLOUDY    71  67  87 N3        30.04S FOG
TAPPAHANNOCK*  PTSUNNY   74  74 100 N3        30.03S
QUINTON*       CLOUDY    73  72  99 CALM      30.01F FOG
CHARLOTTSVILLE FAIR      75  61  61 SE5       30.02F
GORDONSVILLE*  CLOUDY    75  66  71 CALM      30.01F
ORANGE*        FAIR      77  68  73 NE3       30.04F
LOUISA*        PTSUNNY   79  72  78 CALM      30.02S
BUMPASS*       CLOUDY    73  68  84 CALM      30.02F
FARMVILLE*     FAIR      78  66  66 CALM      30.01F
CREWE*         CLOUDY    72  72  99 CALM      30.02F
FORT PICKETT*  NOT AVBL
CHASE CITY*    CLOUDY    71  70  95 CALM      30.02F
CLARKSVILLE*   CLOUDY    68  68 100 CALM      30.02F
SOUTH HILL*    CLOUDY    70  70 100 CALM      30.07F
LAWRENCEVILLE* CLOUDY    72  72 100 CALM      30.02S
EMPORIA*       DRIZZLE   73  72  94 CALM      30.03R
$$

VAZ088>098-301600-
SOUTHEAST VIRGINIA

CITY           SKY/WX    TMP DP  RH WIND       PRES   REMARKS
NORFOLK        CLOUDY    76  70  82 S7        30.02S
VIRGINIA BEACH LGT RAIN  78  71  79 SE7       30.02S
NORFOLK NAVAL  LGT RAIN  75  70  84 S6        30.03F
WEST POINT*    CLOUDY    73  72  95 SE3       30.03S
SALUDA*        CLOUDY    70  70 100 SE3       30.02F
NEWPORT NEWS   LGT RAIN  75  72  90 S6        30.02S
LANGLEY AFB    LGT RAIN  75  71  87 SE6       30.02S
FORT EUSTIS    CLOUDY    75  43  31 S3        30.00F
WILLIAMSBURG*  FAIR      75  73  94 CALM      30.03S
HR EXEC AP*      N/A     75  72  88 S6        30.04S
FRANKLIN*      CLOUDY    76  70  82 S5        30.02S
US460-WAKEFLD  FAIR      76  70  82 CALM      30.02S
$$

VAZ020-022-025-037-045-301600-
WEST CENTRAL AND SOUTHWEST VIRGINIA

CITY           SKY/WX    TMP DP  RH WIND       PRES   REMARKS
STAUNTON*      FAIR      70  63  79 CALM      30.06F
WAYNESBORO*    FAIR      71  64  78 CALM      30.05F
HOT SPRINGS VA FAIR      66  56  69 NW7       30.13F
LYNCHBURG      CLOUDY    72  63  73 CALM      30.04F
DANVILLE       PTSUNNY   75  66  73 MISG      30.02F
SOUTH BOSTON*  CLOUDY    72  70  92 CALM      30.02F
MARTINSVILLE   CLOUDY    72  65  78 NW6       30.06F
ROANOKE        FAIR      71  64  78 CALM      30.07F
BLACKSBURG     FAIR      67  62  85 CALM      30.12F
DUBLIN*        FAIR      69  65  88 CALM      30.10F
MARION*        FAIR      74  62  66 W3        30.12F
HILLSVILLE*    FAIR      69  60  73 N3        30.10F
RICHLANDS*     FAIR      72  45  37 N3        30.12S
WISE*          FAIR      77  52  41 N8        30.12S
ABINGDON*      FAIR      75  62  64 CALM      30.09F
$$

MDZ021>025-VAZ099-100-301600-
SOUTHERN MARYLAND AND THE DELMARVA PENINSULA

CITY           SKY/WX    TMP DP  RH WIND       PRES   REMARKS
PATUXENT RIVER CLOUDY    70  68  93 NE5       30.02S FOG
BAY BRIDGE APT CLOUDY    73  68  83 E3        30.02F
LEONARDTOWN    CLOUDY    70  68  94 CALM      30.04S
DOVER          CLOUDY    75  74  99 W5        30.01S
GEORGETOWN     LGT RAIN  74  72  93 S5        30.02F FOG
EASTON         CLOUDY    73  73 100 CALM      30.05F
CAMBRIDGE      CLOUDY    72  70  94 CALM      30.02S
SALISBURY      LGT RAIN  74  72  93 S5        30.02S
OCEAN CITY     CLOUDY    70  69  97 SW7       30.04R
WALLOPS ISLAND CLOUDY    73  70  90 S8        30.04S
ACCOMACK*      LGT RAIN  72  68  88 CALM      30.03F
$$

NCZ012>017-030>032-301600-
NORTH CENTRAL AND EASTERN NORTH CAROLINA

CITY           SKY/WX    TMP DP  RH WIND       PRES   REMARKS
ROANOKE RAPIDS PTSUNNY   75  72  88 SE3       30.01S
RALEIGH        CLOUDY    74  70  87 NE3       30.00F
ELIZABETH CITY CLOUDY    74  71  91 SE8       30.03S
AHOSKIE*       PTSUNNY   75  71  87 SE6       30.01S
EDENTON*       CLOUDY   N/A N/A N/A E5        30.03S
CURRITUCK*     DRIZZLE   74  73  99 CALM      30.04S
KILL DEVIL HLS RAIN      71  70  95 SE3       30.03S
MANTEO         NOT AVBL
CAPE HATTERAS  RAIN      72  71  97 S6        30.03F
TARBORO*       PTSUNNY   80  73  76 SE7       30.01S
GOLDSBORO      CLOUDY    81  75  83 E10       29.97F
WASHINGTON     MOSUNNY   75  72  89 E7        30.01S
GREENVILLE     MOSUNNY   79  73  83 E6        30.02S
NEW BERN       CLOUDY    78  69  73 E7        30.01S
WILMINGTON     PTSUNNY   81  69  67 SE9       29.96S
$$

VAZ048-301600-
ELSEWHERE

CITY           SKY/WX    TMP DP  RH WIND       PRES   REMARKS
HARRISBURG PA  PTSUNNY   76  65  68 CALM      30.00F
BALTIMORE      PTSUNNY   75  66  73 E3        30.01F
ANNAPOLIS      PTSUNNY   72  68  87 SE8       30.01F
ANDREWS AFB    FAIR      74  65  71 NE5       30.01F
PHILADELPHIA   CLOUDY    75  68  78 S6        30.01F
HENDERSON NC   FOG       67  67  99 N3        30.02F VSB 1/2
GREENSBORO     PTSUNNY   74  66  76 N5        30.02F
ROCKY MOUNT    CLOUDY    79  71  76 VRB6      29.99F
$$

VAZ100-301600-
MARINE

STATION/POSITION TIME  TEMP    WIND        PRES    WAVE   SWELL
                       AIR SEA DIR/SP/G            HT/PER HT/PER
                 (UTC) (F)     (DEG/KT/KT) (MB)    (FT/S) (FT/S)
BRANDYWINE LGT   1400   69     280/  5/  6 1017.0R
CAPE MAY NJ      1400   69 68  180/  5/  8 1016.7R
LEWES DE         1400   73 62  210/  4/  6 1016.7R
15NM E FENWICK I 1450   67 64              1017.1F   3/ 7
OCEAN-CITY-INLET 1400   64 61  210/  6/  7 1017.4R
WACHAPREAGUE VA  1400   73 76  220/  6/  8 1016.7R
THOMAS POINT MD  1500   70 68   60/  3/  3 1017.9F
GOOSES REEF MD   1500   69 69  360/  6/  8 1017.6F   0
COVE POINT MD    1400   67     360/  5/  6 1017.5R
SOLOMONS ISLAND  1400   70 67  140/  2/  2   N/A
BISHOPS HEAD MD  1400   74 74  210/  5/  6 1017.0R
PINEY POINT MD   1400           10/  5/  5   N/A
POTOMAC MD       1500   71 72  160/  6/  8 1015.5F   0
CAMBRIDGE MD     1400   71 69  300/  4/  5 1015.9R
LEWISETTA VA     1400   74 70   CALM  /  1 1016.2R
RAPPAHANNOCK LGT 1400          180/  5/  5 1017.4S
STINGRAY PT      1500   70 69  160/  4/  8 1017.5S   0
YORK RVR RNG VA  1400   73     180/  6/  6 1016.1S
YORKTOWN VA      1400   73 71  170/  3/  5 1016.4R
JAMESTOWN VA     1500   70 75  310/  8/ 10   N/A     0
DOMINION TERM VA 1400   73     170/  5/  6 1016.7S
KIPTOPEKE VA     1400      69  170/  8/  9   N/A
CHES BAY BRIDGE  1400   72 69  140/  7/  8 1016.7S
CAPE HENRY VA    1400   73     150/  5/  9   N/A
CHESAPEAKE LGHT  1400   70     170/  7/  7 1017.9R
WILLOUBY STN VA  1400   73     160/  7/  7 1017.7R
CAPE HENRY BUOY  1412      69                N/A     3/ 7
1ST LANDING BUOY 1500   70 70  120/  8/ 10 1016.7F   2/ 5
CAPE CHARLES BUO 1426      69                N/A     3/ 7   3/ 7
OFFSHORE WE BUOY 1421      70                N/A     4/ 7   5/ 7
64NM E OF VA BCH 1450   67 63  190/ 10/ 12 1017.4F   5/ 6   5/ 6
DUCK PIER NC     1400   65 58  150/  7/  8 1016.4S
44100 DUCK FRF   1424      68                N/A     4/ 7
44056 DUCK FRF   1411      62                N/A     3/ 8
OREGON INLET NC  1400   72 77  130/  4/  7 1017.0F
HATTERAS NC      1400   71 76  120/  3/  6 1016.6S
DIAMOND SHLS NC  1450   73 80  250/ 10/ 14 1016.7R   6/ 7   5/ 7
CAPE LOOKOUT C1F1C2F2C3F3C4F4C5F5C6F6C7F7C8M1C9!



USA.gov is the U.S. government's official web portal to all federal, state and local government web resources and services.